Tashkent International Airport

Airport
ICAO code: 
UTTT
IATA Code: 
TAS
Summary
ICAO Region: 
EUR
Territory: 
Location: 
Tashkent, Uzbekistan,
Serving: 
Tashkent
Elevation: 
1417 ft
Coordinates: 
Aerial View: 
41° 15' 28.3" N, 69° 16' 52.27" E
Airport BS: 
Bird Strike
Airport CFIT: 
Altimeter Temperature Error Correction
Airport LOS: 
Parallel Runway Operation
Metar
Observation
UTTT 210500Z 12002KT 7000 NSC 02/M04 Q1008 R08R/CLRD70 NOSIG
Station
Tashkent
Date/Time
2022-01-21 05:00:00
Wind direction
120°
Wind speed
02 kts
Lowest cloud amount
nil significant cloud
Temperature
2°C
Dew point
-4°C
Humidity
64%
QNH
1008 hPa
Weather condition
n/a

Description

Tashkent International Airport is the main international airport of Uzbekistan and the largest airport in Central Asia. It is located 12 km from the center of Tashkent. Sometimes the airport is also referred as Vostochny-Tashkent.

Climatology

Runways

Designator Length Width Surface Rops
08R/26L 3905 45 ASP Yes/Yes
08L/26R 4000 60 CON Yes/Yes
Airport map: 
Aerial View: 

SKYbrary Partners:

Safety knowledge contributed by: